Charleston, SC

7:55 AM EST on November 20, 2017 (GMT -0500)
Charleston Air Force Base-International

Weather History for KCHS - January, 2013

Change the Weather History Date:

Saturday, January 12, 2013

  Actual Average Record
Temperature  
Mean Temperature 69 °F 48 °F  
Max Temperature 81 °F 59 °F 81 °F (2013)
Min Temperature 57 °F 37 °F 15 °F (1981)
Degree Days  
Heating Degree Days 0 17  
Month to date heating degree days 116 204  
Since 1 July heating degree days 814 942  
Cooling Degree Days 4 0  
Month to date cooling degree days 6 0  
Year to date cooling degree days 6 0  
Growing Degree Days 19 (Base 50)    
Moisture  
Dew Point 59 °F    
Average Humidity 73    
Maximum Humidity 100    
Minimum Humidity 45    
Precipitation  
Precipitation 0.00 in 0.12 in 3.90 in (1993)
Month to date precipitation 0.14 1.40  
Year to date precipitation 0.14 1.40  
Snow  
Snow 0.00 in 0.00 in - ()
Month to date snowfall 0.0  
Since 1 July snowfall 0.0 0.4  
Snow Depth 0.00 in    
Sea Level Pressure  
Sea Level Pressure 30.17 in    
Wind  
Wind Speed 4 mph (SSW)    
Max Wind Speed 12 mph    
Max Gust Speed 25 mph    
Visibility 7 miles    
Events Fog    
T = Trace of Precipitation, MM = Missing Value Source: NWS Daily Summary

Daily Weather History Graph

Daily Weather History Graph

Search for Another Location

Airport or City:

Trip Planner

Search our weather history database for the weather conditions in past years. The results will help you decide how hot, cold, wet, or windy it might be!

Date:

Astronomy

Jan. 12, 2013 Rise Set
Actual Time 7:23 AM EST 5:34 PM EST
Civil Twilight 6:56 AM EST 6:00 PM EST
Nautical Twilight 6:26 AM EST 6:31 PM EST
Astronomical Twilight 5:56 AM EST 7:01 PM EST
Moon 7:46 AM EST (1/12) 6:54 PM EST (1/12)
Length of Visible Light 11h 04m
Length of Day
10h 10m
New Moon, 1% of the Moon is Illuminated
Jan 12
New Moon
Jan 18
First Quarter
Jan 26
Full
Feb 3
Last Quarter
Feb 10
New

Hourly Weather History & Observations

Time (EST) Temp. Heat Index Dew Point Humidity Pressure Visibility Wind Dir Wind Speed Gust Speed Precip Events Conditions
12:40 AM 60.8 °F - 59.0 °F 94% 30.20 in 0.2 mi Calm Calm - N/A Fog Fog
12:56 AM 60.1 °F - 60.1 °F 100% 30.20 in 0.2 mi Calm Calm - N/A Fog Fog
1:56 AM 61.0 °F - 60.1 °F 97% 30.20 in 0.2 mi WSW 4.6 mph - N/A Fog Fog
2:56 AM 59.0 °F - 57.9 °F 96% 30.20 in 0.5 mi Calm Calm - N/A Fog Fog
3:56 AM 57.0 °F - 55.9 °F 96% 30.18 in 0.5 mi SW 4.6 mph - N/A Fog Fog
4:56 AM 59.0 °F - 59.0 °F 100% 30.17 in 9.0 mi SSW 5.8 mph - N/A   Clear
5:56 AM 61.0 °F - 59.0 °F 93% 30.18 in 3.0 mi Calm Calm - N/A   Clear
6:48 AM 59.0 °F - 57.2 °F 94% 30.19 in 5.0 mi SSW 3.5 mph - N/A Fog Shallow Fog
6:56 AM 57.9 °F - 57.0 °F 97% 30.19 in 5.0 mi SSW 4.6 mph - N/A Fog Shallow Fog
7:36 AM 57.2 °F - 57.2 °F 100% 30.20 in 2.0 mi Calm Calm - N/A Fog Shallow Fog
7:56 AM 60.1 °F - 59.0 °F 96% 30.20 in 5.0 mi SSW 3.5 mph - N/A Fog Shallow Fog
8:56 AM 64.0 °F - 63.0 °F 96% 30.22 in 9.0 mi SW 3.5 mph - N/A   Partly Cloudy
9:56 AM 68.0 °F - 63.0 °F 84% 30.22 in 10.0 mi SW 3.5 mph - N/A   Clear
10:56 AM 73.9 °F - 63.0 °F 68% 30.21 in 10.0 mi Calm Calm - N/A   Clear
11:56 AM 75.9 °F - 60.1 °F 58% 30.18 in 10.0 mi Calm Calm - N/A   Clear
12:56 PM 78.1 °F - 59.0 °F 52% 30.16 in 10.0 mi Calm Calm - N/A   Partly Cloudy
1:56 PM 80.1 °F 80.6 °F 57.9 °F 47% 30.15 in 10.0 mi SSW 5.8 mph - N/A   Partly Cloudy
2:56 PM 79.0 °F - 59.0 °F 50% 30.14 in 10.0 mi Calm Calm - N/A   Partly Cloudy
3:56 PM 79.0 °F - 59.0 °F 50% 30.14 in 10.0 mi SSW 6.9 mph - N/A   Scattered Clouds
4:56 PM 75.0 °F - 60.1 °F 60% 30.14 in 10.0 mi SSW 9.2 mph - N/A   Partly Cloudy
5:56 PM 70.0 °F - 60.1 °F 71% 30.14 in 10.0 mi SSW 6.9 mph - N/A   Partly Cloudy
6:56 PM 64.9 °F - 60.1 °F 84% 30.14 in 10.0 mi SSW 8.1 mph - N/A   Clear
7:56 PM 64.0 °F - 60.1 °F 87% 30.14 in 10.0 mi South 8.1 mph - N/A   Clear
8:56 PM 62.1 °F - 59.0 °F 90% 30.13 in 10.0 mi SSW 4.6 mph - N/A   Clear
9:56 PM 62.1 °F - 60.1 °F 93% 30.13 in 10.0 mi South 4.6 mph - N/A   Clear
10:56 PM 60.1 °F - 57.9 °F 93% 30.14 in 10.0 mi SSW 4.6 mph - N/A   Clear
11:56 PM 61.0 °F - 59.0 °F 93% 30.14 in 9.0 mi Calm Calm - N/A   Clear